{"data":{"norad_id":65206,"intl_designator":"2025-176J","name":"STARLINK-34763","alt_names":[],"object_type":"PAYLOAD","status":"ACTIVE","operator":null,"country":"US","launch_date":"2025-08-14","launch_site_code":"AFETR","launch_vehicle":null,"mission":null,"orbit_class":"UNKNOWN","rcs_meters":null,"size_class":null,"mass_kg":null,"dimensions":null,"purposes":["comms"],"wikipedia_slug":null,"has_3d_model":false,"image_url":null,"decayed_at":null,"tle_current":{"epoch":"2026-05-24T18:01:58.206432Z","epoch_age_seconds":103886,"freshness":"FRESH","line1":"1 65206U 25176J   26144.75136813  .00010985  00000+0  33574-3 0  9998","line2":"2 65206  53.1603 158.8737 0001416  92.6107 267.5058 15.34403373 44762","mean_motion":15.34403373,"eccentricity":0.0001416,"inclination_deg":53.1603,"raan_deg":158.8737,"arg_perigee_deg":92.6107,"mean_anomaly_deg":267.5058,"bstar":0.00033574,"rev_number":4476,"period_min":93.847551780636,"perigee_km":461.7245534002,"apogee_km":463.66187651708,"semimajor_km":6840.8302149586,"source":"CELESTRAK","updated_at":"2026-05-25T13:38:20.719142Z"}}}